This demonstration page uses our WeatherBlox Daily Observations layout. Learn more.

Left ArrowRight Arrow

Hourly Observations for July 20, 2021

Temp ( °F °C ) Dew Point ( °F °C ) Humidity (%) Winds ( mph kmh ) Pressure ( in mb ) Visibility ( mi km ) Precip ( " mm )
12:15 am 00:15 Clear 66 18.8 62 16.7 88 88 SSE 3 6 30.15 1021 10 16 N/A
12:35 am 00:35 Clear 65 18.1 62 16.7 92 92 SSE 3 6 30.17 1022 10 16 N/A
12:55 am 00:55 Clear 64 17.6 61 16.2 92 92 SSE 3 6 30.16 1021 10 16 N/A
1:15 am 01:15 Clear 64 17.8 61 16 89 89 SSE 3 6 30.16 1021 10 16 N/A
1:35 am 01:35 Clear 64 18 61 16 88 88 N N/A 30.16 1021 10 16 N/A
1:55 am 01:55 Clear 63 17 60 15.5 91 91 N N/A 30.17 1022 10 16 N/A
2:15 am 02:15 Clear 62 16.5 60 15.3 93 93 N N/A 30.17 1022 10 16 N/A
2:35 am 02:35 Clear with Mist and Fog 62 16.5 60 15.8 96 96 N N/A 30.17 1022 4 6 N/A
2:55 am 02:55 Clear with Mist and Fog 60 15.5 59 14.8 96 96 ENE 3 6 30.18 1022 4 6 N/A
3:15 am 03:15 Clear with Mist and Fog 60 15.5 59 15 97 97 N N/A 30.17 1022 4 6 N/A
3:35 am 03:35 Mostly Cloudy with Mist and Fog 59 14.9 58 14.5 97 97 N N/A 30.18 1022 2 2 N/A
3:55 am 03:55 Clear with Mist and Fog 59 14.9 58 14.5 97 97 ENE 5 7 30.19 1022 3 4 N/A
4:15 am 04:15 Partly Cloudy with Mist and Fog 59 15 58 14.5 97 97 E 3 6 30.19 1022 3 4 N/A
4:35 am 04:35 Mostly Cloudy with Mist and Fog 59 15.2 59 14.9 98 98 E 5 7 30.18 1022 3 5 N/A
4:55 am 04:55 Mostly Cloudy with Mist and Fog 60 15.8 60 15.5 98 98 E 3 6 30.19 1022 4 6 N/A
5:15 am 05:15 Partly Cloudy with Mist and Fog 60 15.5 59 15 97 97 N N/A 30.18 1022 4 6 N/A
5:35 am 05:35 Partly Cloudy with Mist and Fog 60 15.7 59 15.2 97 97 N N/A 30.18 1022 4 6 N/A
5:55 am 05:55 Mostly Cloudy with Mist and Fog 59 15 58 14.5 97 97 N N/A 30.19 1022 4 6 N/A
6:15 am 06:15 Partly Cloudy with Mist and Fog 58 14.4 57 13.9 97 97 N N/A 30.20 1023 4 6 N/A
6:35 am 06:35 Mostly Cloudy with Mist and Fog 57 14 56 13.6 97 97 N N/A 30.20 1023 2 2 N/A
6:55 am 06:55 Mostly Cloudy with Mist and Fog 57 14 56 13.6 97 97 N N/A 30.20 1023 1 2 N/A
7:15 am 07:15 Mostly Cloudy with Mist and Fog 57 14.1 57 13.9 99 99 N N/A 30.20 1023 1 2 N/A
7:35 am 07:35 Mostly Cloudy with Mist and Fog 59 14.8 58 14.5 98 98 N N/A 30.20 1023 1 2 N/A
7:55 am 07:55 Mostly Cloudy with Mist and Fog 60 15.7 60 15.5 99 99 N N/A 30.19 1022 1 2 N/A
8:15 am 08:15 Sunny with Mist and Fog 62 16.6 61 16.3 98 98 N N/A 30.18 1022 2 3 N/A
8:35 am 08:35 Sunny with Mist and Fog 64 17.5 62 16.8 96 96 N N/A 30.17 1022 3 5 N/A
8:55 am 08:55 Sunny with Mist and Fog 66 18.7 62 16.8 89 89 N N/A 30.16 1021 5 8 N/A
9:15 am 09:15 Sunny 67 19.5 63 17.1 86 86 N N/A 30.16 1021 7 11 N/A
9:35 am 09:35 Sunny 69 20.4 64 17.6 84 84 SE 5 7 30.15 1021 7 11 N/A
9:55 am 09:55 Sunny 70 21.3 65 18.1 82 82 SSE 7 11 30.14 1021 10 16 N/A
10:15 am 10:15 Sunny 72 22.1 65 18.5 80 80 S 5 7 30.13 1020 10 16 N/A
10:35 am 10:35 Sunny 73 22.9 66 18.7 77 77 SE 6 9 30.13 1020 10 16 N/A
10:55 am 10:55 Sunny 74 23.5 65 18.4 73 73 SE 8 13 30.12 1020 10 16 N/A
11:15 am 11:15 Partly Cloudy 75 24 64 17.8 68 68 SSE 6 9 30.12 1020 10 16 N/A
11:35 am 11:35 Mostly Cloudy 76 24.2 63 17.4 66 66 SSE 9 15 30.12 1020 10 16 N/A
11:55 am 11:55 Partly Cloudy 77 24.8 62 16.4 60 60 SSE 9 15 30.11 1020 10 16 N/A
12:15 pm 12:15 Partly Cloudy 78 25.3 62 16.7 59 59 SSE 10 17 30.11 1020 10 16 N/A
12:35 pm 12:35 Sunny 78 25.5 63 17.1 60 60 S 12 19 30.09 1019 10 16 N/A
12:55 pm 12:55 Partly Cloudy 77 25.1 62 16.6 59 59 SSE 8 13 30.09 1019 10 16 N/A
1:15 pm 13:15 Partly Cloudy 79 26.1 61 16.3 55 55 SE 10 17 30.07 1018 10 16 N/A
1:35 pm 13:35 Sunny 79 26.3 63 17 57 57 SSE 8 13 30.07 1018 10 16 N/A
1:55 pm 13:55 Partly Cloudy 80 26.5 62 16.5 54 54 S 10 17 30.07 1018 10 16 N/A
2:15 pm 14:15 Partly Cloudy 80 26.6 61 16.2 53 53 SSE 9 15 30.06 1018 10 16 N/A
2:35 pm 14:35 Partly Cloudy 80 26.8 61 16 52 52 SE 7 11 30.04 1017 10 16 N/A
2:55 pm 14:55 Partly Cloudy 81 27.1 61 16.2 51 51 S 8 13 30.04 1017 10 16 N/A
3:15 pm 15:15 Partly Cloudy 80 26.9 60 15.6 50 50 S 7 11 30.03 1017 10 16 N/A
3:35 pm 15:35 Partly Cloudy 81 27.4 60 15.4 48 48 S 10 17 30.03 1017 10 16 N/A
3:55 pm 15:55 Partly Cloudy 82 27.6 60 15.5 48 48 SSE 12 19 30.03 1017 10 16 N/A
4:15 pm 16:15 Sunny 82 27.6 59 14.8 46 46 SSE 9 15 30.02 1017 10 16 N/A
4:35 pm 16:35 Sunny 82 27.5 60 15.4 48 48 SSE 10 17 30.01 1016 10 16 N/A
4:55 pm 16:55 Sunny 82 27.7 59 15.2 46 46 SSE 14 22 30.01 1016 10 16 N/A
5:15 pm 17:15 Sunny 82 27.5 59 15.1 47 47 SSE 10 17 30.00 1016 10 16 N/A
5:35 pm 17:35 Sunny 81 27.3 60 15.8 49 49 SSE 9 15 29.99 1016 10 16 N/A
5:55 pm 17:55 Sunny 82 27.5 59 15.1 47 47 SSE 10 17 29.99 1016 10 16 N/A
6:15 pm 18:15 Sunny 80 26.5 60 15.4 51 51 SSE 9 15 30.00 1016 10 16 N/A
6:35 pm 18:35 Sunny 80 26.9 60 15.4 49 49 SSE 8 13 29.98 1015 10 16 N/A
6:55 pm 18:55 Sunny 80 26.7 61 16.2 53 53 SSE 10 17 29.99 1015 10 16 N/A
7:15 pm 19:15 Sunny 79 26.3 60 15.6 52 52 SE 10 17 29.98 1015 10 16 N/A
7:35 pm 19:35 Sunny 79 26.1 60 15.6 52 52 SE 12 19 29.98 1015 10 16 N/A
7:55 pm 19:55 Sunny 78 25.7 60 15.8 54 54 SSE 9 15 29.98 1015 10 16 N/A
8:15 pm 20:15 Sunny 77 25.1 61 15.9 57 57 SE 8 13 29.98 1015 10 16 N/A
8:35 pm 20:35 Sunny 76 24.5 61 16.3 60 60 SE 7 11 29.98 1015 10 16 N/A
8:55 pm 20:55 Sunny 74 23.6 61 16.2 63 63 SE 8 13 29.99 1016 10 16 N/A
9:15 pm 21:15 Clear 73 22.8 64 17.5 72 72 SE 7 11 30.00 1016 10 16 N/A
9:35 pm 21:35 Clear 72 22.1 64 17.9 77 77 SE 7 11 30.01 1016 10 16 N/A
9:55 pm 21:55 Clear 72 22.1 64 17.8 77 77 SE 7 11 30.01 1016 10 16 N/A
10:15 pm 22:15 Clear 71 21.7 64 17.5 77 77 SE 6 9 30.02 1016 10 16 N/A
10:35 pm 22:35 Clear 70 20.9 63 17.2 79 79 SE 6 9 30.02 1017 10 16 N/A
10:55 pm 22:55 Clear 69 20.4 62 16.7 79 79 SE 6 9 30.04 1017 10 16 N/A
11:15 pm 23:15 Clear 67 19.6 62 16.5 82 82 SSE 7 11 30.05 1017 10 16 N/A
11:35 pm 23:35 Clear 67 19.5 61 16 80 80 SSE 7 11 30.05 1017 10 16 N/A
11:55 pm 23:55 Clear 66 19.1 60 15.6 80 80 SSE 6 9 30.05 1018 10 16 N/A

Powered by AerisWeather